Location: Grisols
(45.0093°N, 3.1167°E)
Time: 06:59:20
(UTC+00:00)

CENTAUR R/B - Pass Details

Date: 21 October 2019
Orbit: 781 x 1407 km, 63.4° (Epoch: 10 November)

Event Time Altitude Azimuth Distance (km) Brightness Sun altitude
Rises 18:32:13 0° 193° (SSW) 3,393 5.5 -18.2°
Reaches altitude 10° 18:34:39 10° 186° (S) 2,523 4.7 -18.6°
Maximum altitude 18:40:09 44° 116° (ESE) 1,312 2.7 -19.6°
Enters shadow 18:42:40 31° 68° (ENE) 1,702 3.3 -20.0°
